Tracking 18984 objects as of 24-Feb-2018
HD Live streaming from Space Station
objects crossing your sky now

FENGYUN 1C DEB

Track FENGYUN 1C DEB now!
10-day predictions


NORAD ID: 31325
Int'l Code: 1999-025BQD
Perigee: 832.5 km
Apogee: 954.3 km
Inclination: 99.1 °
Period: 102.7 minutes
Semi major axis: 7264 km
RCS: 0.0037 m2 (small)
Launch date: May 10, 1999
Source: People's Republic of China (PRC)
Launch site: Taiyaun Space Center, China (TSC)

Note: This is SATELLITE DEBRIS
aabbcc
Your satellite tracking list
Your tracking list is empty




NASA's NSSDC Master Catalog

Two Line Element Set (TLE):
1 31325U 99025BQD 18046.39605451 +.00000508 +00000-0 +35133-3 0  9992
2 31325 099.1271 106.0414 0083815 264.8618 094.2977 14.02179983196212
Source of the keplerian elements: AFSPC